WUK722 EGGW-LFOB

Flight info

Callsign WUK722
Flight time 0h 41m
Altitude 18000
Route RODNI N27 ICTAM/N0369F200 Q63 CPT/N0361F190 DCT MID DCT XIDIL M605 PETAX/N0350F170 J150 VELOL
Aircraft A321/M-SDE3FGHIRWY/LB1

Departure

Time 2026-04-21 10:34
Airport London Luton Airport (EGGW)

Arrival

Time 2026-04-21 11:16
Airport Beauvais-Tillé airport (LFOB)
Time Latitude Longitude Altitude Speed Heading
2026-04-21 10:00 51.88021 -0.37830 497 ft 0 kts 128°
2026-04-21 10:22 51.88026 -0.37842 523 ft 4 kts 128°
2026-04-21 10:22 51.88040 -0.37870 523 ft 4 kts 140°
2026-04-21 10:23 51.88059 -0.37879 523 ft 4 kts 208°
2026-04-21 10:23 51.88080 -0.37856 523 ft 4 kts 218°
2026-04-21 10:23 51.88093 -0.37840 523 ft 0 kts 218°
2026-04-21 10:27 51.88092 -0.37840 523 ft 1 kts 218°
2026-04-21 10:27 51.88084 -0.37851 523 ft 3 kts 218°
2026-04-21 10:27 51.88060 -0.37881 523 ft 5 kts 218°
2026-04-21 10:27 51.88025 -0.37925 519 ft 7 kts 218°
2026-04-21 10:28 51.87984 -0.37978 523 ft 8 kts 218°
2026-04-21 10:28 51.87927 -0.38013 523 ft 10 kts 189°
2026-04-21 10:28 51.87864 -0.38002 523 ft 10 kts 161°
2026-04-21 10:28 51.87811 -0.37939 523 ft 10 kts 129°
2026-04-21 10:29 51.87777 -0.37836 523 ft 11 kts 115°
2026-04-21 10:29 51.87743 -0.37721 523 ft 12 kts 115°
2026-04-21 10:29 51.87700 -0.37573 520 ft 13 kts 115°
2026-04-21 10:29 51.87651 -0.37481 522 ft 10 kts 150°
2026-04-21 10:30 51.87583 -0.37455 522 ft 11 kts 180°
2026-04-21 10:30 51.87513 -0.37505 521 ft 11 kts 230°
2026-04-21 10:30 51.87489 -0.37622 523 ft 12 kts 254°
2026-04-21 10:30 51.87466 -0.37755 523 ft 13 kts 255°
2026-04-21 10:31 51.87440 -0.37906 523 ft 13 kts 254°
2026-04-21 10:31 51.87412 -0.38016 524 ft 11 kts 233°
2026-04-21 10:31 51.87342 -0.38087 522 ft 13 kts 205°
2026-04-21 10:31 51.87307 -0.38107 522 ft 1 kts 196°
2026-04-21 10:32 51.87295 -0.38110 522 ft 3 kts 189°
2026-04-21 10:32 51.87253 -0.38130 523 ft 7 kts 211°
2026-04-21 10:32 51.87228 -0.38200 523 ft 9 kts 247°
2026-04-21 10:32 51.87205 -0.38266 521 ft 3 kts 274°
2026-04-21 10:33 51.87216 -0.38263 522 ft 2 kts 30°
2026-04-21 10:33 51.87220 -0.38245 522 ft 0 kts 73°
2026-04-21 10:33 51.87225 -0.38222 523 ft 19 kts 73°
2026-04-21 10:34 51.87330 -0.37608 521 ft 93 kts 75°
2026-04-21 10:34 51.87559 -0.36279 573 ft 146 kts 74°
2026-04-21 10:34 51.87827 -0.34632 1169 ft 152 kts 74°
2026-04-21 10:34 51.88093 -0.33001 2049 ft 149 kts 73°
2026-04-21 10:35 51.88383 -0.31368 2638 ft 157 kts 72°
2026-04-21 10:35 51.88714 -0.29560 2916 ft 178 kts 72°
2026-04-21 10:35 51.89087 -0.27510 3114 ft 202 kts 75°
2026-04-21 10:35 51.89105 -0.25100 3342 ft 231 kts 104°
2026-04-21 10:36 51.88224 -0.22829 3869 ft 251 kts 135°
2026-04-21 10:36 51.86626 -0.21684 4087 ft 261 kts 172°
2026-04-21 10:36 51.84838 -0.22309 4354 ft 273 kts 208°
2026-04-21 10:36 51.83530 -0.24538 4616 ft 281 kts 243°
2026-04-21 10:37 51.82909 -0.27544 4881 ft 285 kts 256°
2026-04-21 10:37 51.82553 -0.30700 4989 ft 286 kts 261°
2026-04-21 10:37 51.82372 -0.32812 5003 ft 286 kts 261°
2026-04-21 10:37 51.82106 -0.36001 5019 ft 286 kts 261°
2026-04-21 10:38 51.81813 -0.39200 5011 ft 287 kts 259°
2026-04-21 10:38 51.81488 -0.42374 5015 ft 285 kts 258°
2026-04-21 10:38 51.81098 -0.45513 5020 ft 285 kts 256°
2026-04-21 10:38 51.80654 -0.48637 5024 ft 286 kts 255°
2026-04-21 10:39 51.80183 -0.51758 5010 ft 285 kts 255°
2026-04-21 10:39 51.79706 -0.54867 5008 ft 286 kts 254°
2026-04-21 10:39 51.79224 -0.57976 5015 ft 286 kts 255°
2026-04-21 10:39 51.78739 -0.61093 5001 ft 285 kts 254°
2026-04-21 10:40 51.78258 -0.64189 5017 ft 285 kts 254°
2026-04-21 10:40 51.77776 -0.67295 5008 ft 286 kts 255°
2026-04-21 10:40 51.77293 -0.70417 5011 ft 286 kts 255°
2026-04-21 10:40 51.76815 -0.73525 5029 ft 287 kts 255°
2026-04-21 10:41 51.76304 -0.76654 5791 ft 288 kts 249°
2026-04-21 10:41 51.75436 -0.79560 6645 ft 289 kts 233°
2026-04-21 10:41 51.74146 -0.82037 7412 ft 288 kts 221°
2026-04-21 10:41 51.72632 -0.84158 8200 ft 288 kts 207°
2026-04-21 10:42 51.70814 -0.85294 8945 ft 283 kts 184°
2026-04-21 10:42 51.68876 -0.85228 9700 ft 279 kts 164°
2026-04-21 10:42 51.66971 -0.84543 10470 ft 282 kts 163°
2026-04-21 10:42 51.64992 -0.83810 10752 ft 304 kts 163°
2026-04-21 10:43 51.62858 -0.83015 10944 ft 325 kts 163°
2026-04-21 10:43 51.60614 -0.82188 11460 ft 334 kts 164°
2026-04-21 10:43 51.58330 -0.81360 12115 ft 338 kts 164°
2026-04-21 10:43 51.56024 -0.80533 12784 ft 343 kts 165°
2026-04-21 10:44 51.53669 -0.79687 13432 ft 348 kts 165°
2026-04-21 10:44 51.51258 -0.78821 14104 ft 352 kts 165°
2026-04-21 10:44 51.48848 -0.77958 14687 ft 357 kts 163°
2026-04-21 10:44 51.46415 -0.77089 15246 ft 361 kts 165°
2026-04-21 10:45 51.43937 -0.76202 15791 ft 368 kts 165°
2026-04-21 10:45 51.41421 -0.75301 16356 ft 373 kts 165°
2026-04-21 10:45 51.38869 -0.74383 16924 ft 378 kts 165°
2026-04-21 10:45 51.36289 -0.73457 17245 ft 382 kts 166°
2026-04-21 10:46 51.33683 -0.72523 17316 ft 383 kts 166°
2026-04-21 10:46 51.31087 -0.71599 17328 ft 384 kts 167°
2026-04-21 10:46 51.28472 -0.70670 17330 ft 386 kts 167°
2026-04-21 10:46 51.25837 -0.69734 17330 ft 387 kts 167°
2026-04-21 10:47 51.23245 -0.68815 17326 ft 388 kts 167°
2026-04-21 10:47 51.20603 -0.67878 17328 ft 389 kts 167°
2026-04-21 10:47 51.17952 -0.66939 17327 ft 388 kts 167°
2026-04-21 10:47 51.15324 -0.66009 17321 ft 388 kts 167°
2026-04-21 10:48 51.12684 -0.65077 17315 ft 387 kts 167°
2026-04-21 10:48 51.10056 -0.64146 17313 ft 386 kts 166°
2026-04-21 10:48 51.07510 -0.62835 17308 ft 386 kts 155°
2026-04-21 10:48 51.05153 -0.60787 17303 ft 386 kts 144°
2026-04-21 10:49 51.03080 -0.58093 17292 ft 384 kts 133°
2026-04-21 10:49 51.01310 -0.54939 17296 ft 382 kts 129°
2026-04-21 10:49 50.99582 -0.51746 17297 ft 382 kts 128°
2026-04-21 10:49 50.97846 -0.48555 17297 ft 382 kts 129°
2026-04-21 10:50 50.96100 -0.45359 17299 ft 383 kts 129°
2026-04-21 10:50 50.94360 -0.42175 17298 ft 383 kts 129°
2026-04-21 10:50 50.92617 -0.38982 17300 ft 383 kts 129°
2026-04-21 10:50 50.90869 -0.35776 17302 ft 384 kts 128°
2026-04-21 10:51 50.89122 -0.32580 17301 ft 382 kts 129°
2026-04-21 10:51 50.87400 -0.29434 17299 ft 384 kts 129°
2026-04-21 10:51 50.85624 -0.26194 17302 ft 385 kts 129°
2026-04-21 10:51 50.83890 -0.23038 17301 ft 385 kts 129°
2026-04-21 10:52 50.82129 -0.19842 17302 ft 386 kts 129°
2026-04-21 10:52 50.80366 -0.16646 17302 ft 387 kts 130°
2026-04-21 10:52 50.78599 -0.13439 17299 ft 386 kts 129°
2026-04-21 10:52 50.76833 -0.10234 17299 ft 387 kts 129°
2026-04-21 10:53 50.75064 -0.07025 17296 ft 387 kts 129°
2026-04-21 10:53 50.73297 -0.03822 17295 ft 386 kts 129°
2026-04-21 10:53 50.71526 -0.00627 17303 ft 387 kts 129°
2026-04-21 10:53 50.69757 0.02555 17286 ft 384 kts 129°
2026-04-21 10:54 50.68002 0.05713 17282 ft 382 kts 129°
2026-04-21 10:54 50.66253 0.08860 17281 ft 382 kts 129°
2026-04-21 10:54 50.64497 0.12015 17280 ft 384 kts 129°
2026-04-21 10:54 50.62726 0.15198 17283 ft 388 kts 130°
2026-04-21 10:55 50.60940 0.18398 17283 ft 391 kts 129°
2026-04-21 10:55 50.59138 0.21626 17280 ft 392 kts 130°
2026-04-21 10:55 50.57345 0.24827 17280 ft 391 kts 130°
2026-04-21 10:55 50.55549 0.28026 17279 ft 390 kts 130°
2026-04-21 10:56 50.53748 0.31231 17281 ft 390 kts 130°
2026-04-21 10:56 50.51957 0.34418 17280 ft 389 kts 130°
2026-04-21 10:56 50.50163 0.37607 17277 ft 389 kts 130°
2026-04-21 10:56 50.48368 0.40808 17277 ft 390 kts 130°
2026-04-21 10:57 50.46576 0.44005 17276 ft 390 kts 130°
2026-04-21 10:57 50.44776 0.47202 17289 ft 390 kts 129°
2026-04-21 10:57 50.42979 0.50377 17278 ft 389 kts 129°
2026-04-21 10:57 50.41173 0.53554 17268 ft 390 kts 130°
2026-04-21 10:58 50.39371 0.56729 17273 ft 391 kts 130°
2026-04-21 10:58 50.37563 0.59917 17272 ft 391 kts 130°
2026-04-21 10:58 50.35750 0.63101 17275 ft 391 kts 132°
2026-04-21 10:58 50.33735 0.65965 17277 ft 392 kts 141°
2026-04-21 10:59 50.31633 0.68597 17269 ft 392 kts 141°
2026-04-21 10:59 50.29501 0.71266 17266 ft 392 kts 141°
2026-04-21 10:59 50.27373 0.73927 17269 ft 392 kts 141°
2026-04-21 10:59 50.25240 0.76588 17267 ft 392 kts 141°
2026-04-21 11:00 50.23109 0.79242 17262 ft 392 kts 141°
2026-04-21 11:00 50.20976 0.81894 17266 ft 392 kts 141°
2026-04-21 11:00 50.18863 0.84588 17258 ft 392 kts 136°
2026-04-21 11:00 50.17005 0.87716 17267 ft 396 kts 130°
2026-04-21 11:01 50.15194 0.90963 17265 ft 397 kts 130°
2026-04-21 11:01 50.13384 0.94201 17262 ft 395 kts 130°
2026-04-21 11:01 50.11574 0.97424 17263 ft 394 kts 130°
2026-04-21 11:02 50.07959 1.03830 17254 ft 393 kts 130°
2026-04-21 11:02 50.06151 1.07027 17257 ft 393 kts 130°
2026-04-21 11:02 50.04375 1.10169 17089 ft 382 kts 130°
2026-04-21 11:02 50.02647 1.13218 16910 ft 370 kts 130°
2026-04-21 11:03 50.00942 1.16225 16273 ft 371 kts 130°
2026-04-21 11:03 49.99235 1.19226 15807 ft 368 kts 130°
2026-04-21 11:03 49.97546 1.22189 15370 ft 363 kts 130°
2026-04-21 11:03 49.95882 1.25105 14767 ft 359 kts 130°
2026-04-21 11:04 49.94233 1.27885 14463 ft 347 kts 136°
2026-04-21 11:04 49.92352 1.30105 14253 ft 334 kts 148°
2026-04-21 11:04 49.90366 1.31985 13852 ft 327 kts 148°
2026-04-21 11:04 49.88457 1.33782 13363 ft 323 kts 148°
2026-04-21 11:05 49.86546 1.35577 12852 ft 319 kts 148°
2026-04-21 11:05 49.84676 1.37364 12433 ft 311 kts 142°
2026-04-21 11:05 49.83106 1.39603 11841 ft 305 kts 131°
2026-04-21 11:05 49.81648 1.42003 11154 ft 306 kts 131°
2026-04-21 11:06 49.80220 1.44357 10731 ft 297 kts 130°
2026-04-21 11:06 49.78813 1.46669 10147 ft 293 kts 130°
2026-04-21 11:06 49.77426 1.48944 9527 ft 289 kts 130°
2026-04-21 11:06 49.76055 1.51195 8925 ft 285 kts 130°
2026-04-21 11:07 49.74708 1.53410 8330 ft 281 kts 130°
2026-04-21 11:07 49.73378 1.55599 7923 ft 278 kts 130°
2026-04-21 11:07 49.72052 1.57780 7541 ft 278 kts 130°
2026-04-21 11:07 49.70737 1.59938 7284 ft 273 kts 130°
2026-04-21 11:08 49.69442 1.62059 6947 ft 269 kts 130°
2026-04-21 11:08 49.68166 1.64146 6580 ft 266 kts 129°
2026-04-21 11:08 49.66901 1.66217 6204 ft 262 kts 130°
2026-04-21 11:08 49.65686 1.68195 6085 ft 247 kts 130°
2026-04-21 11:09 49.64523 1.70085 5838 ft 237 kts 129°
2026-04-21 11:09 49.63414 1.71896 5595 ft 229 kts 129°
2026-04-21 11:09 49.62343 1.73648 5376 ft 226 kts 130°
2026-04-21 11:09 49.61256 1.75427 5139 ft 224 kts 130°
2026-04-21 11:10 49.60252 1.77221 4912 ft 222 kts 120°
2026-04-21 11:10 49.59373 1.79209 4669 ft 219 kts 123°
2026-04-21 11:10 49.58514 1.81039 4448 ft 210 kts 122°
2026-04-21 11:10 49.57705 1.82871 4213 ft 205 kts 121°
2026-04-21 11:11 49.56923 1.84683 3971 ft 202 kts 121°
2026-04-21 11:11 49.56151 1.86481 3740 ft 202 kts 120°
2026-04-21 11:11 49.55379 1.88275 3511 ft 200 kts 120°
2026-04-21 11:11 49.54610 1.90063 3276 ft 200 kts 120°
2026-04-21 11:12 49.53852 1.91821 3100 ft 191 kts 120°
2026-04-21 11:12 49.53153 1.93440 2973 ft 175 kts 120°
2026-04-21 11:12 49.52506 1.94940 2775 ft 163 kts 119°
2026-04-21 11:12 49.51897 1.96353 2569 ft 154 kts 118°
2026-04-21 11:13 49.51311 1.97711 2388 ft 150 kts 118°
2026-04-21 11:13 49.50747 1.99017 2193 ft 143 kts 118°
2026-04-21 11:13 49.50206 2.00270 1992 ft 139 kts 116°
2026-04-21 11:13 49.49676 2.01498 1791 ft 137 kts 116°
2026-04-21 11:14 49.49148 2.02722 1605 ft 138 kts 116°
2026-04-21 11:14 49.48616 2.03954 1419 ft 138 kts 117°
2026-04-21 11:14 49.48087 2.05175 1189 ft 137 kts 119°
2026-04-21 11:14 49.47554 2.06398 1004 ft 139 kts 119°
2026-04-21 11:15 49.47016 2.07637 828 ft 140 kts 117°
2026-04-21 11:15 49.46475 2.08889 616 ft 141 kts 118°
2026-04-21 11:15 49.45937 2.10133 448 ft 141 kts 119°
2026-04-21 11:15 49.45404 2.11352 348 ft 126 kts 117°
2026-04-21 11:16 49.45046 2.12183 354 ft 51 kts 123°
2026-04-21 11:16 49.44924 2.12466 350 ft 30 kts 124°
2026-04-21 11:16 49.44809 2.12730 347 ft 29 kts 124°
2026-04-21 11:16 49.44709 2.12960 357 ft 18 kts 123°
2026-04-21 11:17 49.44676 2.13102 356 ft 13 kts 97°
2026-04-21 11:17 49.44647 2.13135 354 ft 1 kts 220°
2026-04-21 11:17 49.44647 2.13115 357 ft 5 kts 271°
2026-04-21 11:17 49.44675 2.13040 359 ft 10 kts 304°
2026-04-21 11:18 49.44724 2.12930 352 ft 15 kts 304°
2026-04-21 11:18 49.44783 2.12792 353 ft 17 kts 303°
2026-04-21 11:18 49.44855 2.12623 355 ft 20 kts 303°
2026-04-21 11:18 49.44934 2.12442 350 ft 20 kts 303°
2026-04-21 11:19 49.45014 2.12260 357 ft 21 kts 303°
2026-04-21 11:19 49.45092 2.12079 353 ft 21 kts 303°
2026-04-21 11:19 49.45175 2.11888 357 ft 22 kts 304°
2026-04-21 11:19 49.45266 2.11681 351 ft 24 kts 304°
2026-04-21 11:20 49.45363 2.11459 334 ft 25 kts 304°
2026-04-21 11:20 49.45417 2.11334 337 ft 7 kts 306°
2026-04-21 11:20 49.45444 2.11274 336 ft 8 kts 302°
2026-04-21 11:20 49.45482 2.11185 334 ft 12 kts 303°
2026-04-21 11:21 49.45530 2.11075 339 ft 13 kts 303°
2026-04-21 11:21 49.45579 2.10961 335 ft 14 kts 303°
2026-04-21 11:21 49.45651 2.10871 334 ft 11 kts
2026-04-21 11:21 49.45713 2.10915 337 ft 9 kts 28°
2026-04-21 11:22 49.45761 2.10954 350 ft 7 kts 28°
2026-04-21 11:22 49.45802 2.10987 352 ft 6 kts 28°
2026-04-21 11:22 49.45825 2.11008 356 ft 3 kts 33°
2026-04-21 11:22 49.45827 2.11010 356 ft 1 kts 34°
2026-04-21 11:23 49.45831 2.11014 356 ft 1 kts 35°
2026-04-21 11:23 49.45839 2.11027 357 ft 1 kts 48°
2026-04-21 11:23 49.45842 2.11034 347 ft 1 kts 60°
2026-04-21 11:23 49.45846 2.11046 356 ft 1 kts 60°
2026-04-21 11:24 49.45847 2.11050 355 ft 1 kts 60°
2026-04-21 11:24 49.45849 2.11055 355 ft 0 kts 60°